Tracking 25707 objects as of 29-Jun-2022
HD Live streaming from Space Station
objects crossing your sky now

STARLINK-3919

Track STARLINK-3919 now!
10-day predictions
STARLINK-3919 is classified as:


NORAD ID: 52580
Int'l Code: 2022-051AW
Perigee: 538.1 km
Apogee: 540.2 km
Inclination: 53.2 °
Period: 95.3 minutes
Semi major axis: 6910 km
RCS: Unknown
Launch date: May 13, 2022
Source: United States (US)
Launch site: AIR FORCE WESTERN TEST RANGE (AFWTR)
aabbcc
Your satellite tracking list
Your tracking list is empty




NASA's NSSDC Master Catalog

Two Line Element Set (TLE):
1 52580U 22051AW  22180.58334491 -.00846428  00000-0 -53280-1 0  9993
2 52580  53.2173  70.4907 0001500  63.9129 119.6336 15.11364809  1307
Source of the keplerian elements: AFSPC